Wind_Speed
17 17 17 17 17 18 18 18 18 17 17 15 15 15 15 15 15 16 15 15 15 15 16 16 16 16 16 16 15 16 16 16 15 15 16 16 16 16 16 16 16 16 16 16
18 18 19 19 19 19 19 19 18 17 17 17 17 17 17 17 17 17 16 16 15 16 16 16 16 16 17 16 16 17 17 16 16 16 16 16 16 16 16 16 17 17 17 17
19 19 19 20 18 19 18 18 19 19 18 19 19 19 19 18 17 17 17 17 16 17 17 17 17 17 17 17 17 17 17 17 17 17 17 16 16 16 16 17 17 17 18 17
21 21 22 18 19 19 19 20 20 20 20 21 20 20 19 19 19 19 18 18 18 18 19 19 18 19 19 19 18 18 18 18 18 18 17 17 17 17 17 17 18 17 17 17
22 23 23 20 20 19 20 21 20 20 20 21 20 20 21 21 20 19 19 20 20 21 21 21 20 20 20 20 19 19 19 19 19 19 19 18 18 18 18 18 18 18 18 19
24 25 24 21 20 20 21 22 21 22 22 22 22 22 22 22 22 22 22 22 22 23 23 22 21 21 21 20 20 20 20 20 20 20 19 19 19 19 19 19 19 20 20 20
25 25 24 23 22 22 23 23 22 23 23 23 23 24 23 24 25 25 25 24 24 24 24 23 23 23 22 22 22 22 22 21 21 21 21 21 21 21 21 21 21 21 21 20
27 27 25 25 24 24 24 24 24 24 24 25 25 25 25 26 26 26 26 26 25 25 25 25 24 24 24 24 24 24 24 23 23 22 23 23 23 22 22 22 22 22 22 21
29 29 28 27 26 26 26 26 27 27 26 26 27 27 27 27 27 27 27 27 27 27 27 26 26 25 25 25 25 25 25 25 25 24 24 24 24 24 24 24 24 24 24 24
31 30 30 29 29 28 28 28 28 29 29 28 28 29 30 29 29 29 29 29 29 29 28 28 28 27 27 27 27 27 26 27 26 26 26 26 26 26 26 26 27 27 26 26
33 32 32 31 30 30 31 31 30 31 32 32 31 31 31 31 31 31 31 31 31 30 30 30 29 29 29 29 29 28 28 28 28 28 28 28 28 28 28 28 28 28 28 28
33 33 33 32 32 32 33 34 34 34 34 33 33 32 32 32 32 32 32 32 32 32 32 31 31 30 30 30 30 30 30 30 30 30 30 30 30 30 30 30 30 30 30 29
34 34 34 33 33 34 34 35 35 35 35 34 34 34 34 33 33 33 33 33 33 33 32 32 32 31 31 31 32 32 32 31 31 32 32 32 32 32 32 32 32 31 31 30
35 35 35 34 34 35 35 34 34 34 34 34 34 35 34 34 34 33 33 33 33 33 33 33 32 32 32 32 33 33 33 33 33 33 33 33 33 33 33 33 33 32 32 32
35 35 35 35 35 35 35 35 35 35 35 35 35 36 36 35 34 33 33 33 34 34 33 33 32 32 33 33 33 33 33 33 33 34 34 34 34 34 34 34 33 33 32 32
33 34 34 34 35 34 34 34 35 35 35 35 35 36 36 35 35 35 34 34 34 33 33 33 32 32 33 33 34 33 33 33 33 33 33 34 34 34 34 34 34 33 33 32
32 32 33 34 34 34 34 34 35 35 35 35 35 36 36 35 35 35 35 35 34 34 34 33 33 33 34 34 34 33 33 34 34 34 34 34 34 34 34 34 34 33 33 33
30 31 32 32 32 33 34 35 35 35 35 35 35 36 37 36 35 35 36 37 36 35 34 34 34 33 34 34 34 34 34 34 34 34 34 34 34 34 34 33 33 34 34 34
30 30 31 32 32 33 33 34 35 35 35 36 36 36 37 37 37 36 36 36 36 35 35 35 35 35 35 35 35 35 35 34 34 34 35 35 34 34 34 33 33 33 34 34
29 30 31 32 32 33 33 34 34 35 36 36 37 37 37 37 37 37 36 35 34 34 34 35 35 35 35 35 35 34 34 34 34 35 35 35 34 34 34 34 34 34 34 34
30 31 31 32 32 32 33 33 34 34 35 35 36 36 35 35 35 36 36 35 34 34 33 33 34 34 33 33 33 34 34 34 34 34 34 34 34 34 34 34 34 35 35 35
30 31 31 32 32 32 33 33 34 34 34 34 34 34 33 33 33 34 34 34 34 34 33 33 33 33 33 33 33 33 33 33 33 33 33 34 34 34 34 34 35 35 35 35
30 30 30 30 31 31 32 33 34 34 33 32 32 32 33 33 33 33 33 34 34 34 34 33 33 34 34 34 33 33 33 34 34 33 33 34 34 34 34 34 35 35 35 35
31 30 30 30 31 31 31 31 32 33 33 33 32 32 33 34 34 34 34 34 34 34 34 34 33 33 33 34 33 33 34 34 34 34 34 35 35 35 35 35 35 34 34 34
31 31 31 30 31 31 31 31 31 31 32 32 33 33 33 33 33 33 33 33 33 34 34 34 33 33 33 34 34 34 34 34 34 34 34 35 35 34 34 34 34 34 34 33
31 31 31 31 31 31 31 31 31 31 31 31 32 32 32 32 32 32 33 33 33 33 33 33 33 33 34 34 34 34 34 34 34 34 34 34 34 34 34 33 33 34 34 33
31 31 31 32 32 32 31 31 31 32 32 32 32 32 32 32 32 32 33 33 33 33 33 33 33 34 34 34 34 33 33 33 33 32 32 33 33 33 33 33 33 32 33 33
Wind_Direction
265 264 264 263 262 260 262 265 270 272 273 274 274 271 273 279 282 286 289 293 295 294 290 290 291 290 290 291 292 291 290 290 290 289 290 289 288 287 285 284 283 282 283 283
262 263 264 264 263 264 268 268 269 270 272 273 272 271 276 279 282 285 286 290 292 294 292 291 291 290 291 291 291 292 291 291 289 290 291 290 288 286 284 284 284 283 282 281
263 262 262 262 266 267 267 266 268 269 270 269 269 271 275 278 280 281 282 286 290 291 291 290 289 290 289 288 287 288 289 289 288 288 287 287 287 286 283 283 284 284 282 281
265 263 263 264 265 266 265 265 268 269 268 269 269 268 271 274 279 280 280 284 288 288 288 287 286 287 286 285 285 285 285 286 286 286 286 286 287 286 284 284 285 285 284 281
262 264 265 264 264 266 266 265 266 267 269 270 268 267 268 273 278 280 282 285 288 287 287 286 285 284 284 284 284 284 284 284 283 282 283 285 286 285 283 284 284 285 284 280
262 264 265 265 264 264 265 266 267 268 268 269 269 270 272 274 277 278 280 283 285 284 283 283 282 281 282 283 283 284 285 286 284 282 282 283 285 283 282 282 283 283 283 281
262 264 266 267 266 265 265 269 269 270 271 270 271 272 274 273 273 275 277 280 282 282 282 281 280 279 279 280 282 282 284 284 284 283 283 282 282 282 281 281 282 284 283 282
262 265 266 269 268 266 266 268 269 270 272 272 272 272 273 273 274 275 277 279 279 279 279 279 279 279 278 278 279 280 281 282 281 281 281 281 280 280 280 280 282 283 283 283
261 263 266 267 269 269 267 268 268 270 271 271 271 271 273 273 273 274 275 277 277 277 277 277 278 278 278 278 279 279 279 279 279 279 280 279 279 279 278 279 281 282 282 282
260 262 264 265 266 267 268 268 268 268 270 273 273 273 273 274 274 274 275 276 276 276 276 276 277 276 276 276 277 278 278 278 278 278 278 278 278 278 279 280 281 281 282 282
260 261 263 264 266 266 266 268 269 271 272 273 274 272 272 274 275 275 275 275 275 274 275 276 276 275 275 276 276 277 277 277 276 277 277 278 278 279 279 281 281 282 282 283
260 261 262 263 264 265 266 267 270 271 271 272 273 273 273 273 274 275 274 275 275 275 275 275 275 274 274 275 275 276 276 276 275 276 277 278 278 278 278 280 281 281 282 282
261 261 262 263 264 265 266 267 268 270 271 271 271 272 273 274 275 276 276 276 276 275 275 274 273 273 274 274 274 274 275 275 275 276 277 278 278 278 278 279 279 279 280 280
260 261 262 263 264 265 266 266 266 268 270 271 271 272 272 274 275 276 276 276 276 276 275 274 273 273 274 274 274 274 275 275 276 277 277 277 277 277 277 277 278 278 278 278
261 262 263 263 264 265 265 265 265 267 269 270 271 272 272 272 273 274 275 276 276 275 274 273 272 273 273 274 274 274 274 274 275 277 276 276 277 277 276 276 277 277 276 276
260 262 263 262 263 265 265 266 267 268 269 269 270 271 272 273 274 274 275 275 275 274 272 271 272 272 274 275 276 275 274 275 275 276 276 276 277 277 277 277 277 275 275 275
260 260 261 261 263 264 265 266 267 268 269 269 270 271 272 273 275 275 274 274 275 274 272 272 272 273 274 275 276 275 275 275 274 275 277 277 277 278 278 277 276 275 275 275
263 263 261 261 263 264 264 266 267 269 269 270 271 271 271 272 273 274 274 273 273 273 272 271 272 273 273 274 275 274 275 275 275 275 276 277 277 277 277 277 277 276 276 276
266 266 264 263 264 264 265 266 267 269 270 271 271 272 272 272 273 274 274 273 273 272 271 271 271 272 274 275 275 275 275 275 275 274 275 277 276 276 276 277 278 278 277 277
266 267 267 266 266 267 267 268 268 269 270 271 272 272 272 273 273 274 274 274 274 273 272 272 273 273 274 274 274 274 275 274 274 275 276 276 276 276 276 277 277 278 278 279
268 269 269 268 268 269 270 270 270 270 271 271 272 273 273 273 274 274 274 273 273 272 272 273 273 274 274 274 274 275 275 275 275 275 276 276 276 276 277 277 278 279 279 280
270 271 271 270 269 270 271 272 271 271 271 271 272 272 272 273 275 275 274 273 271 271 272 273 272 273 274 274 274 275 275 275 275 275 275 276 276 276 277 277 278 279 279 280
273 272 272 272 271 271 271 272 272 271 271 271 271 272 272 273 274 275 275 273 271 271 272 273 273 273 273 273 273 274 274 274 274 274 275 275 276 276 277 277 278 279 279 279
275 275 274 273 273 273 273 272 272 271 272 272 272 273 274 273 272 273 274 273 272 271 272 272 272 272 273 272 273 273 274 274 274 274 275 275 275 276 277 278 278 279 279 279
274 274 274 274 275 275 274 273 273 272 271 272 273 274 275 274 273 273 274 274 273 272 272 273 273 273 273 273 273 274 274 274 274 274 275 275 276 277 277 277 277 278 279 280
275 274 273 273 274 273 274 274 273 272 272 273 273 274 275 275 274 273 273 273 273 272 271 272 273 274 274 274 275 275 274 273 273 274 274 275 276 276 276 277 278 278 279 280
277 275 274 273 273 273 274 274 274 273 273 275 275 275 275 274 274 274 273 273 273 272 271 272 273 274 274 275 275 275 274 273 273 273 273 275 276 276 277 278 279 279 280 280
Height
5820 5820 5820 5821 5821 5820 5820 5820 5820 5820 5820 5820 5819 5818 5819 5818 5818 5818 5817 5816 5815 5814 5812 5811 5810 5808 5807 5806 5804 5803 5801 5800 5798 5797 5796 5794 5793 5791 5790 5789 5788 5787 5786 5785
5815 5815 5815 5815 5816 5816 5815 5815 5815 5815 5815 5815 5814 5814 5814 5814 5813 5813 5812 5811 5810 5809 5808 5806 5805 5803 5802 5801 5799 5798 5796 5795 5793 5792 5790 5789 5788 5786 5785 5784 5783 5782 5781 5780
5809 5810 5810 5810 5811 5811 5810 5810 5810 5809 5810 5809 5809 5808 5808 5808 5808 5808 5807 5806 5805 5804 5803 5802 5800 5798 5797 5795 5794 5793 5791 5790 5788 5787 5785 5784 5782 5781 5780 5779 5778 5777 5776 5775
5803 5804 5804 5808 5806 5805 5805 5804 5804 5804 5803 5803 5803 5803 5803 5803 5803 5802 5802 5801 5800 5798 5797 5796 5795 5793 5792 5790 5789 5787 5786 5784 5783 5781 5780 5779 5777 5776 5775 5773 5772 5771 5770 5770
5797 5796 5797 5800 5799 5799 5798 5798 5798 5798 5798 5798 5797 5797 5797 5797 5797 5796 5796 5795 5794 5793 5791 5790 5788 5787 5785 5784 5783 5781 5780 5779 5777 5776 5774 5773 5772 5770 5769 5768 5767 5766 5765 5764
5790 5790 5790 5794 5793 5792 5792 5792 5792 5792 5792 5792 5791 5792 5792 5791 5791 5790 5789 5788 5787 5786 5784 5783 5781 5780 5779 5777 5776 5775 5774 5772 5771 5770 5769 5767 5766 5764 5763 5762 5761 5760 5759 5758
5783 5782 5783 5786 5786 5786 5786 5787 5786 5785 5785 5785 5785 5785 5785 5784 5783 5783 5782 5781 5780 5778 5777 5776 5774 5773 5772 5771 5769 5768 5767 5766 5765 5763 5762 5761 5760 5759 5757 5756 5755 5754 5753 5752
5775 5776 5779 5778 5778 5779 5779 5778 5778 5777 5777 5777 5777 5777 5776 5776 5775 5775 5774 5773 5772 5770 5769 5768 5766 5765 5764 5763 5762 5761 5760 5759 5758 5757 5756 5754 5753 5752 5751 5750 5749 5748 5746 5745
5768 5770 5770 5769 5769 5769 5769 5769 5769 5769 5769 5769 5768 5768 5768 5768 5767 5766 5765 5764 5763 5762 5761 5760 5758 5757 5756 5756 5755 5754 5753 5752 5751 5750 5748 5747 5746 5745 5744 5743 5742 5741 5739 5738
5758 5759 5760 5760 5760 5760 5760 5760 5760 5760 5760 5759 5759 5759 5758 5758 5758 5757 5756 5755 5754 5753 5752 5751 5750 5749 5748 5747 5746 5745 5744 5743 5742 5741 5740 5739 5738 5737 5736 5735 5734 5733 5731 5730
5748 5750 5750 5751 5751 5751 5751 5751 5751 5751 5750 5750 5750 5749 5749 5748 5748 5747 5746 5745 5745 5744 5743 5742 5741 5740 5739 5738 5737 5736 5735 5735 5734 5733 5732 5731 5730 5729 5727 5726 5725 5724 5723 5722
5738 5739 5740 5741 5741 5741 5741 5741 5741 5741 5741 5740 5740 5740 5739 5739 5738 5737 5736 5735 5734 5733 5732 5732 5731 5730 5729 5728 5728 5727 5726 5725 5724 5723 5722 5721 5720 5719 5718 5717 5716 5715 5713 5712
5727 5728 5729 5730 5730 5731 5730 5731 5731 5730 5730 5730 5730 5730 5729 5729 5728 5727 5726 5725 5724 5723 5722 5721 5721 5720 5719 5718 5717 5717 5716 5715 5714 5714 5713 5711 5710 5709 5708 5707 5706 5705 5704 5702
5716 5717 5717 5718 5719 5719 5719 5719 5720 5720 5720 5719 5719 5719 5719 5718 5718 5717 5716 5715 5714 5713 5712 5711 5710 5710 5709 5708 5707 5706 5705 5705 5704 5703 5702 5701 5700 5699 5698 5697 5696 5695 5694 5692
5704 5705 5706 5707 5707 5708 5708 5708 5709 5709 5709 5709 5708 5708 5708 5707 5707 5706 5705 5704 5703 5702 5701 5700 5700 5699 5698 5697 5696 5695 5695 5694 5693 5692 5690 5689 5688 5687 5686 5685 5685 5684 5683 5682
5693 5694 5694 5695 5696 5696 5696 5697 5697 5698 5698 5698 5697 5697 5696 5696 5695 5695 5694 5693 5692 5691 5690 5690 5689 5689 5687 5686 5685 5684 5684 5683 5681 5680 5679 5677 5676 5675 5675 5674 5673 5673 5672 5671
5682 5683 5684 5684 5685 5685 5686 5686 5686 5686 5686 5686 5686 5685 5685 5684 5684 5683 5682 5681 5680 5680 5679 5679 5678 5677 5676 5675 5674 5673 5672 5672 5670 5669 5668 5666 5665 5664 5663 5662 5662 5661 5660 5659
5672 5672 5673 5673 5674 5674 5674 5675 5674 5675 5674 5674 5674 5673 5673 5672 5672 5672 5671 5670 5669 5669 5668 5667 5666 5666 5665 5664 5663 5662 5661 5660 5659 5658 5657 5655 5654 5653 5652 5651 5650 5649 5648 5647
5661 5662 5662 5662 5662 5663 5663 5663 5663 5663 5663 5662 5661 5661 5661 5660 5659 5659 5658 5657 5657 5657 5656 5655 5655 5654 5653 5652 5651 5650 5649 5648 5647 5647 5645 5644 5643 5642 5641 5640 5639 5638 5637 5636
5651 5651 5651 5651 5651 5651 5652 5652 5652 5651 5651 5650 5649 5649 5648 5648 5647 5646 5646 5645 5645 5645 5644 5643 5643 5642 5642 5641 5640 5639 5638 5637 5636 5635 5634 5632 5631 5630 5629 5628 5628 5627 5625 5624
5641 5641 5641 5640 5640 5640 5640 5640 5640 5639 5639 5638 5637 5637 5636 5635 5635 5634 5634 5634 5634 5633 5632 5632 5631 5630 5630 5629 5628 5627 5626 5625 5624 5623 5622 5621 5620 5619 5618 5617 5616 5615 5614 5613
5631 5630 5630 5630 5630 5630 5629 5628 5628 5627 5627 5626 5626 5625 5624 5624 5623 5622 5622 5622 5622 5621 5621 5620 5620 5619 5618 5617 5617 5615 5614 5613 5612 5611 5610 5609 5608 5607 5606 5605 5604 5603 5602 5601
5620 5620 5619 5619 5618 5618 5617 5617 5616 5616 5615 5615 5614 5614 5613 5613 5612 5611 5611 5610 5610 5609 5609 5609 5608 5607 5606 5605 5605 5604 5602 5601 5600 5599 5598 5597 5596 5595 5594 5593 5592 5591 5590 5589
5610 5609 5609 5608 5607 5607 5606 5605 5604 5604 5604 5603 5603 5602 5601 5601 5600 5600 5599 5598 5598 5598 5597 5597 5596 5595 5594 5593 5593 5592 5591 5590 5588 5587 5586 5585 5584 5583 5582 5581 5580 5579 5578 5577
5599 5599 5598 5598 5597 5596 5596 5595 5594 5593 5592 5592 5592 5591 5590 5589 5588 5588 5587 5587 5586 5585 5585 5585 5584 5583 5583 5582 5581 5580 5579 5578 5577 5575 5574 5573 5572 5571 5570 5569 5568 5567 5567 5566
5589 5588 5587 5587 5586 5585 5585 5584 5583 5582 5582 5581 5581 5580 5579 5578 5577 5576 5576 5575 5574 5574 5573 5573 5573 5572 5571 5570 5569 5568 5566 5566 5565 5564 5563 5562 5561 5560 5559 5558 5557 5556 5555 5554
5578 5577 5577 5576 5576 5575 5574 5573 5572 5572 5571 5570 5569 5569 5568 5567 5566 5565 5564 5564 5563 5563 5562 5562 5561 5560 5559 5558 5557 5556 5555 5554 5553 5553 5552 5551 5550 5549 5548 5547 5546 5545 5544 5543